Wind_Speed
9 7 8 8 9 8 7 7 10 8 7 9 10 10 10 7 6 8 8 8 8 10
11 11 10 10 9 8 9 9 12 13 13 13 14 12 12 10 9 10 10 10 10 9
11 11 11 11 11 12 12 14 14 13 11 10 11 14 13 10 10 12 9 9 11 9
13 13 13 12 11 11 10 9 10 11 13 12 12 12 12 12 11 11 9 10 9 9
14 13 11 10 9 10 11 13 12 11 12 13 13 14 15 13 13 13 11 10 12 11
14 13 11 10 11 12 11 11 11 12 13 13 14 14 16 16 17 18 16 16 15 12
14 13 12 12 11 10 10 11 12 13 13 14 15 15 16 16 15 18 18 17 17 13
13 11 11 12 12 13 15 13 13 14 14 13 14 15 16 15 20 18 18 16 15 17
9 9 11 12 12 14 15 15 14 14 13 12 13 22 19 17 17 19 17 16 17 18
9 9 12 13 14 15 16 17 18 19 19 19 22 18 16 15 19 18 16 16 14 12
13 13 14 15 16 17 18 19 19 18 17 16 17 15 14 15 17 15 14 14 15 16
12 13 15 16 16 16 17 16 17 15 14 15 14 14 14 13 13 13 14 15 15 16
12 13 14 15 14 14 14 15 14 12 11 12 10 8 10 10 11 11 13 13 13 14
11 13 14 14 12 12 12 12 12 9 9 9 9 10 11 11 9 9 9 10 10 11
Wind_Direction
186 192 195 203 207 208 217 226 225 245 255 277 291 280 272 265 258 256 268 262 255 253
207 202 208 210 209 221 222 224 233 252 261 269 284 280 272 268 263 271 278 273 273 264
217 217 217 218 224 223 227 241 246 249 245 248 259 269 269 252 258 260 265 272 270 267
217 217 223 232 231 230 232 237 242 247 255 254 254 254 253 252 239 249 250 260 264 263
222 223 228 228 228 229 244 249 245 243 249 248 247 251 254 243 241 245 244 245 267 271
221 218 214 211 220 240 240 243 253 258 251 251 249 247 249 247 243 253 249 255 263 263
217 210 206 212 225 233 245 250 258 259 253 250 252 250 248 245 244 245 249 258 262 249
207 206 215 228 238 247 258 259 257 252 255 256 254 255 245 237 245 249 250 254 262 247
205 211 234 246 251 260 268 271 266 266 261 255 249 243 247 244 254 249 255 257 253 259
220 231 245 256 261 263 270 269 270 266 259 242 240 260 249 243 243 253 259 258 258 265
241 249 262 268 271 274 279 281 277 271 261 251 249 249 244 244 253 256 250 244 234 240
260 266 270 270 273 277 282 284 277 270 255 253 242 247 254 258 254 255 255 251 254 260
257 260 262 269 278 283 284 281 277 261 254 249 253 262 263 250 255 261 260 263 263 266
259 260 265 273 279 283 275 276 277 268 259 252 254 249 249 247 253 262 268 273 277 278
Height
1519 1519 1521 1522 1523 1524 1525 1526 1524 1525 1524 1523 1522 1523 1522 1522 1522 1521 1521 1520 1520 1521
1515 1516 1517 1519 1519 1521 1521 1521 1519 1520 1518 1518 1518 1518 1518 1519 1519 1517 1517 1517 1517 1516
1513 1514 1514 1515 1515 1515 1516 1515 1515 1517 1517 1517 1515 1514 1514 1513 1515 1513 1514 1513 1513 1514
1509 1510 1511 1512 1512 1513 1514 1516 1515 1515 1514 1514 1515 1512 1510 1511 1511 1510 1511 1510 1509 1509
1506 1507 1508 1510 1511 1510 1510 1509 1509 1508 1509 1510 1509 1511 1509 1506 1507 1506 1506 1506 1505 1505
1502 1503 1504 1505 1506 1505 1507 1507 1506 1506 1505 1504 1505 1503 1505 1503 1501 1500 1501 1500 1501 1502
1497 1498 1498 1500 1501 1502 1503 1504 1504 1502 1501 1499 1500 1499 1498 1498 1496 1494 1494 1495 1496 1497
1494 1494 1495 1495 1496 1497 1497 1498 1498 1498 1497 1493 1493 1495 1494 1494 1492 1490 1489 1490 1492 1491
1490 1491 1492 1492 1492 1493 1493 1494 1494 1494 1491 1491 1489 1486 1488 1488 1488 1487 1486 1486 1487 1488
1486 1488 1487 1488 1487 1485 1486 1488 1486 1485 1482 1481 1480 1483 1483 1484 1484 1484 1484 1484 1483 1483
1482 1483 1483 1482 1483 1483 1481 1480 1482 1479 1476 1477 1476 1478 1479 1479 1480 1481 1481 1481 1480 1480
1477 1478 1479 1480 1478 1477 1476 1476 1478 1476 1473 1474 1472 1473 1475 1476 1477 1478 1479 1478 1478 1477
1472 1473 1473 1474 1473 1473 1472 1474 1473 1472 1470 1472 1470 1470 1473 1474 1474 1475 1476 1476 1476 1475
1468 1469 1469 1470 1470 1468 1469 1469 1470 1469 1468 1470 1467 1468 1472 1472 1472 1473 1474 1474 1473 1472